Starlink 4051

operational
NORAD ID: 53273 Int'l Des: 2022-086 Owner: SPXS Country: US Constellation: starlink
LEOCIRCULAR

Über Starlink 4051

Beschreibung wird geladen...

Live-Position

3D-Globus wird geladen...

Nächste Überflüge

Höhenverlauf

Altitude vs Time

uPlot chart will show altitude changes over time

Zweizeiliger Elementsatz

1 53273U 22086AH 25259.68316139 -.00001407 00000-0 -70338-4 0 9997
2 53273 53.2152 245.2698 0000996 87.1249 272.9858 15.08842874174922
Epoch: 16. Sept. 2025 • Age: 34 hours

Aktueller Status

Höhe 541.8 km
Geschwindigkeit 7.60 km/s
Subsatellitenpunkt 35.08°N, 5.43°W
Startdatum 24. Juli 2022
Alter 3.1 years
Typ internet

Technische Details

Klassifizierung Payload
Masse 297.00 kg
Trockenmasse 275.00 kg
Gesamtmasse 297.00 kg
Länge 0.20 m
Durchmesser 2.80 m
Spannweite 9.00 m
Form Box + pan
Hersteller SPXS
Bus-Typ Starlink
Phasenstatus In Orbit
Besitzer/Staat SPXS/US

Große Konstellationen

Loading constellations...